Regional Weather Roundup
Issued by NWS

Home | Current Version | Previous Version | Text Only | Print | Product List | Glossary Off
Versions: 1 2 3 4 5 6 7 8 9 10 11 12 13 14 15 16 17 18 19 20 21 22 23 24 25 26 27 28 29 30 31 32 33 34 35 36 37 38 39 40 41 42 43 44 45 46 47 48 49 50

000
ASUS43 KLMK 231802
RWRKY
KENTUCKY REGIONAL WEATHER ROUNDUP
NATIONAL WEATHER SERVICE LOUISVILLE KY
200 PM EDT SUN APR 23 2017

NOTE "FAIR" INDICATES FEW OR NO CLOUDS BELOW 12,000 FEET
WITH NO SIGNIFICANT WEATHER AND/OR OBSTRUCTIONS TO VISIBILITY.

KYZ001>023-026-027-061>063-070>075-231900-
WESTERN AND SOUTH CENTRAL KENTUCKY

CITY           SKY/WX    TMP DP  RH WIND       PRES   REMARKS
PADUCAH        SUNNY     64  42  44 N21G28    29.93F
HENDERSON      NOT AVBL
OWENSBORO      CLOUDY    63  43  48 NE15G28   29.92F
HOPKINSVILLE   LGT RAIN  50  46  88 N9        29.91S
BOWLING GREEN  LGT RAIN  51  49  92 NE10      29.91F
GLASGOW        NOT AVBL
$$

KYZ024-025-028>034-038-045-046-053-231900-
NORTH CENTRAL KENTUCKY

CITY           SKY/WX    TMP DP  RH WIND       PRES   REMARKS
LOUISVILLE/SDF CLOUDY    63  41  44 NE18      29.95S
LOUISVILLE/LOU CLOUDY    61  39  44 NE14G23   29.97R
FORT KNOX      CLOUDY    58  46  63 NE8G17    29.92F
$$

KYZ035>037-039>044-047>052-055>060-089>105-231900-
NORTHEAST KENTUCKY

CITY           SKY/WX    TMP DP  RH WIND       PRES   REMARKS
LEXINGTON      CLOUDY    54  44  69 NE15      29.95R
COVINGTON      CLOUDY    59  36  42 NE17      29.98F
FRANKFORT      CLOUDY    57  42  57 N9        29.95S
$$

KYZ054-064>069-076>088-106>120-231900-
SOUTHEAST KENTUCKY

CITY           SKY/WX    TMP DP  RH WIND       PRES   REMARKS
JACKSON        LGT RAIN  49  48  97 VRB3      29.93F FOG
LONDON         LGT RAIN  51  49  92 NE8       29.87F
SOMERSET       NOT AVBL
MIDDLESBORO    RAIN      55  54  98 CALM      29.86F
MONTICELLO     RAIN      51  50  96 N21       29.90S
$$





USA.gov is the U.S. government's official web portal to all federal, state and local government web resources and services.